Regional Weather Roundup
Issued by NWS

Home | Current Version | Previous Version | Graphics & Text | Print | Product List | Glossary On
Versions: 1 2 3 4 5 6 7 8 9 10 11 12 13 14 15 16 17 18 19 20 21 22 23 24 25 26 27 28 29 30 31 32 33 34 35 36 37 38 39 40 41 42 43 44 45 46 47 48 49 50
000
ASUS43 KOAX 180010
RWRNE

WEATHER ROUNDUP FOR NEBRASKA
NATIONAL WEATHER SERVICE OMAHA NE
700 PM CDT FRI APR 17 2015

NOTES: SATELLITE DATA IS BEING USED TO AUGMENT CLOUD COVER ABOVE
       12000 FEET.
       "FAIR" INDICATES FEW OR NO CLOUDS BELOW 12,000 FEET WITH NO
       SIGNIFICANT WEATHER AND/OR OBSTRUCTIONS TO VISIBILITY.

  * THESE STATIONS DO NOT REPORT WEATHER SUCH AS RAIN...SNOW OR FOG.

NEZ001>004-019>022-054>056-180100-
NEBRASKA PANHANDLE

CITY           SKY/WX    TMP DP  RH WIND       PRES   REMARKS
SCOTTSBLUFF    HVY RAIN  48  48 100 VRB6      30.06R FOG
6HR MIN TEMP:  47; 6HR MAX TEMP:  48; 6HR PCP:  0.12;

ALLIANCE       LGT RAIN  49  47  93 NE17      30.02F
6HR MIN TEMP:  45; 6HR MAX TEMP:  49; 6HR PCP:  0.19;

CHADRON        LGT RAIN  47  44  90 NE12      30.09S FOG
6HR MIN TEMP:  45; 6HR MAX TEMP:  48; 6HR PCP:  0.18;

KIMBALL        CLOUDY    42  40  93 NW14      30.01R
SIDNEY         CLOUDY    51  48  89 NE6       29.99R
6HR MIN TEMP:  47; 6HR MAX TEMP:  54; 6HR PCP:  0.78;

$$

NEZ057>060-069>072-079>082-180100-
SOUTHWEST NEBRASKA

CITY           SKY/WX    TMP DP  RH WIND       PRES   REMARKS
NORTH PLATTE   PTSUNNY   61  54  77 E15       29.98F
6HR MIN TEMP:  55; 6HR MAX TEMP:  63; 6HR PCP:  0.02;

IMPERIAL         N/A     61  51  70 E7        29.94S
6HR MIN TEMP:  54; 6HR MAX TEMP:  64; 6HR PCP: TRACE;

LEXINGTON      MOSUNNY   62  56  80 E15       29.98S
MCCOOK         MOSUNNY   69  51  52 E13       29.93F
6HR MIN TEMP:  59; 6HR MAX TEMP:  71;

OGALLALA       RAIN      58  54  88 NE9       29.98S
$$

NEZ005>010-023>029-035>040-094-180100-
NORTH CENTRAL NEBRASKA

CITY           SKY/WX    TMP DP  RH WIND       PRES   REMARKS
VALENTINE      LGT RAIN  54  52  93 NE9       30.07F
6HR MIN TEMP:  53; 6HR MAX TEMP:  56; 6HR PCP:  0.18;

AINSWORTH      DRIZZLE   55  53  94 NE13      30.05F
BROKEN BOW     PTSUNNY   61  56  83 NE12      30.00F
6HR MIN TEMP:  58; 6HR MAX TEMP:  61; 6HR PCP:  0.01;

O`NEILL        CLOUDY    64  49  58 N10       30.05F
ORD            PTSUNNY   62  56  80 N9        30.00F
6HR MIN TEMP:  56; 6HR MAX TEMP:  65; 6HR PCP:  0.80;

THEDFORD       CLOUDY    55  54  97 E10       30.04S FOG
$$

NEZ041-046>049-061>064-073>077-083>087-180100-
SOUTH CENTRAL NEBRASKA

CITY           SKY/WX    TMP DP  RH WIND       PRES   REMARKS
GRAND ISLAND   PTSUNNY   65  54  67 SE8       30.00R
6HR MIN TEMP:  61; 6HR MAX TEMP:  69;

AURORA         PTSUNNY   69  55  60 SE15      29.99S
HASTINGS       MOSUNNY   67  54  63 E14       29.98S
6HR MIN TEMP:  61; 6HR MAX TEMP:  68;

HEBRON         CLOUDY    66  57  72 E6        29.97F
HOLDREGE       PTSUNNY   64  55  70 E7        29.97F
KEARNEY *      PTSUNNY   63  55  77 E13       29.99S
YORK           CLOUDY    68  55  64 SE6       30.00S
$$

NEZ011>018-030>034-042>045-180100-
NORTHEAST NEBRASKA

CITY           SKY/WX    TMP DP  RH WIND       PRES   REMARKS
ALBION         CLOUDY    69  49  49 E7        30.00F
BLAIR          CLOUDY    73  51  45 E5        29.98S
COLUMBUS *     CLOUDY    72  50  46 E8        30.01S
FREMONT        CLOUDY    74  49  41 E7        29.99S
TEKAMAH        CLOUDY    76  50  40 E8        29.98S
6HR MIN TEMP:  76; 6HR MAX TEMP:  79;

WAYNE          PTSUNNY   73  46  38 E7        30.01S
$$

NEZ050>053-065>068-078-088>093-180100-
SOUTHEAST NEBRASKA

CITY           SKY/WX    TMP DP  RH WIND       PRES   REMARKS
LINCOLN        CLOUDY    72  52  49 SE8       29.98S
6HR MIN TEMP:  71; 6HR MAX TEMP:  74;

OMAHA EPPLEY   CLOUDY    75  52  44 E5        29.97F
6HR MIN TEMP:  75; 6HR MAX TEMP:  77;

BEATRICE       CLOUDY    67  57  71 E3        29.98F
FALLS CITY     CLOUDY    72  56  57 CALM      29.96S
6HR MIN TEMP:  72; 6HR MAX TEMP:  76;

NEBRASKA CITY  CLOUDY    72  47  40 SE5       29.99R
PLATTSMOUTH    CLOUDY    72  49  43 SE3       29.98S
$$

NEZ044-045-051>053-067-180100-
OMAHA AREA

CITY           SKY/WX    TMP DP  RH WIND       PRES   REMARKS
OMAHA EPPLEY   CLOUDY    75  52  44 E5        29.97F
6HR MIN TEMP:  75; 6HR MAX TEMP:  77;

BLAIR          CLOUDY    73  51  45 E5        29.98S
FREMONT        CLOUDY    74  49  41 E7        29.99S
MILLARD        CLOUDY    74  54  49 SE6       29.98R
OFFUTT AFB     CLOUDY    72  55  54 E6        29.97S
PLATTSMOUTH    CLOUDY    72  49  43 SE3       29.98S
WAHOO          MOCLDY    72  51  48 E5        29.98S
$$


USA.gov is the U.S. government's official web portal to all federal, state and local government web resources and services.